RUSSARO Weather Reports


time (UTC)temp
C
wind
direction
speed
KPH
gust
KPH
rain 1hr
cm
rain 24hr
cm
rain mn
cm
humidity
%
barometer
mb
20260508104732 8 221 22.5 25.7 0.00 0.00 0.00 62 1027.1
20260508102732 7 219 22.5 24.1 0.00 0.00 0.00 69 1027.2
20260508094732 7 232 22.5 27.4 0.00 0.00 0.00 63 1027.2
20260508092732 8 233 17.7 19.3 0.00 0.00 0.00 63 1027.1
20260508090732 7 230 16.1 17.7 0.00 0.00 0.00 66 1027.2
20260508084732 8 235 16.1 17.7 0.00 0.00 0.00 62 1027.2
20260508082731 7 241 16.1 17.7 0.00 0.00 0.00 69 1027.2
20260508080732 8 246 16.1 17.7 0.00 0.00 0.00 68 1027.2
20260508074732 8 209 11.3 16.1 0.00 0.00 0.00 53 1027.1
20260508072731 8 175 6.4 9.7 0.00 0.00 0.00 48 1026.7
20260508070732 9 132 6.4 9.7 0.00 0.00 0.00 44 1026.6
20260508064731 8 115 6.4 11.3 0.00 0.00 0.00 51 1026.5
20260508062731 8 44 11.3 17.7 0.00 0.00 0.00 53 1026.2
20260508054732 7 50 9.7 14.5 0.00 0.00 0.00 59 1025.8
20260508052732 6 27 11.3 14.5 0.00 0.00 0.00 60 1025.7
20260508050731 7 16 11.3 16.1 0.00 0.00 0.00 61 1025.5
20260508044732 6 8 12.9 17.7 0.00 0.00 0.00 65 1025.3
20260508042731 5 4 14.5 20.9 0.00 0.00 0.00 67 1025.1
20260508040731 5 4 12.9 17.7 0.00 0.00 0.00 66 1024.9
20260508034731 5 1 14.5 19.3 0.00 0.00 0.00 67 1024.7
20260508032731 4 357 17.7 22.5 0.00 0.00 0.00 66 1024.5
20260508030731 3 353 17.7 20.9 0.00 0.00 0.00 71 1024.4
20260508024730 3 1 16.1 19.3 0.00 0.00 0.00 72 1024.1
20260508022730 3 356 19.3 22.5 0.00 0.00 0.00 71 1023.8
20260508020731 3 360 19.3 24.1 0.00 0.00 0.00 72 1023.5
20260508014730 3 7 14.5 19.3 0.00 0.00 0.00 75 1023.3
20260508012730 3 351 17.7 20.9 0.00 0.00 0.00 75 1023.1
20260508010731 4 353 16.1 20.9 0.00 0.00 0.00 71 1022.4
20260508004731 4 346 19.3 24.1 0.00 0.00 0.00 72 1022.7
20260508002731 4 353 16.1 20.9 0.00 0.00 0.00 71 1022.4
20260508000731 4 358 14.5 19.3 0.00 0.00 0.00 70 1022.1
20260507234731 5 351 14.5 19.3 0.00 0.00 0.00 66 1022.0
20260507232730 5 342 19.3 24.1 0.00 0.00 0.00 64 1021.7
20260507230731 5 338 17.7 20.9 0.00 0.00 0.00 63 1021.5
20260507224729 5 343 17.7 22.5 0.00 0.00 0.00 60 1021.2
20260507222730 6 345 17.7 22.5 0.00 0.00 0.00 60 1021.1
20260507220730 6 344 17.7 24.1 0.00 0.00 0.00 56 1020.9
20260507214730 6 342 19.3 25.7 0.00 0.00 0.00 53 1020.6
20260507212729 7 336 19.3 25.7 0.00 0.00 0.00 51 1020.3
20260507204730 7 334 20.9 25.7 0.00 0.00 0.00 51 1019.7
20260507202729 7 336 20.9 25.7 0.00 0.00 0.00 55 1019.5
20260507200731 7 328 22.5 29.0 0.00 0.00 0.00 49 1019.3
20260507194729 8 321 24.1 30.6 0.00 0.00 0.00 46 1019.0
20260507192729 8 318 27.4 30.6 0.00 0.00 0.00 50 1018.6
20260507190729 8 317 24.1 29.0 0.00 0.00 0.00 51 1018.3
20260507184729 8 314 25.7 32.2 0.00 0.00 0.00 53 1018.1
20260507182728 8 311 27.4 32.2 0.00 0.00 0.00 51 1017.9
20260507180728 8 308 32.2 38.6 0.00 0.00 0.00 52 1017.7
20260507174729 8 299 35.4 40.2 0.00 0.00 0.00 44 1017.6
20260507172728 9 299 37.0 41.8 0.00 0.00 0.00 43 1017.5
20260507170728 9 303 32.2 40.2 0.00 0.00 0.00 45 1017.4
20260507164729 8 280 37.0 41.8 0.00 0.00 0.00 57 1017.4
20260507162729 8 261 32.2 33.8 0.00 0.00 0.00 65 1017.2
20260507160729 8 253 30.6 32.2 0.00 0.00 0.00 63 1017.2
20260507154728 9 256 30.6 32.2 0.00 0.00 0.00 59 1017.0
20260507152728 9 265 33.8 33.8 0.00 0.00 0.00 59 1017.1
20260507150730 10 267 33.8 35.4 0.00 0.00 0.00 46 1017.1
20260507144729 11 269 30.6 32.2 0.00 0.00 0.00 42 1017.0
20260507142729 11 270 27.4 30.6 0.00 0.00 0.00 47 1016.9
20260507140728 10 273 29.0 30.6 0.00 0.00 0.00 52 1016.9
20260507134729 10 273 25.7 29.0 0.00 0.00 0.00 56 1016.9
20260507132728 10 270 24.1 27.4 0.00 0.00 0.00 52 1016.8
20260507130728 10 266 24.1 25.7 0.00 0.00 0.00 48 1016.7
20260507124727 9 263 22.5 25.7 0.00 0.00 0.00 48 1016.7
20260507122727 10 259 19.3 29.0 0.00 0.00 0.00 54 1016.6
20260507120728 9 233 11.3 11.3 0.00 0.00 0.00 53 1016.6
20260507114728 8 223 9.7 9.7 0.00 0.00 0.00 49 1016.6
20260507112727 9 216 9.7 9.7 0.00 0.00 0.00 49 1016.6
20260507110727 9 195 8.0 9.7 0.00 0.00 0.00 44 1016.5